This demonstration page uses our WeatherBlox Daily Observations layout. Learn more.

Left ArrowRight Arrow

36.19886, -115.1175

Hourly Observations for February 2, 2016

Temp ( °F °C ) Dew Point ( °F °C ) Humidity (%) Winds ( mph kmh ) Pressure ( in mb ) Visibility ( mi km ) Precip ( " mm )
12:53 am 00:53 Clear 36 2.2 12 -11.1 37 37 N 14 22 30.19 1023 10 16 0.00 0.00
1:53 am 01:53 Clear 36 2.2 11 -11.7 35 35 N 14 22 30.20 1023 10 16 0.00 0.00
2:53 am 02:53 Clear 34 1.1 12 -11.1 40 40 N 15 24 30.20 1023 10 16 0.00 0.00
3:53 am 03:53 Clear 34 1.1 12 -11.1 40 40 N 14 22 30.22 1023 10 16 0.00 0.00
4:53 am 04:53 Clear 35 1.7 10 -12.2 35 35 N 16 26 30.24 1024 10 16 0.00 0.00
5:53 am 05:53 Clear 34 1.1 11 -11.7 38 38 NW 18 30 30.24 1024 10 16 0.00 0.00
6:53 am 06:53 Sunny 34 1.1 10 -12.2 37 37 WNW 8 13 30.27 1025 10 16 0.00 0.00
7:53 am 07:53 Sunny 35 1.7 12 -11.1 38 38 NW 8 13 30.28 1026 10 16 0.00 0.00
8:53 am 08:53 Sunny 38 3.3 10 -12.2 31 31 N 10 17 30.28 1026 10 16 0.00 0.00
9:53 am 09:53 Sunny 39 3.9 11 -11.7 31 31 NNW 12 19 30.29 1026 10 16 0.00 0.00
10:53 am 10:53 Sunny 41 5 11 -11.7 29 29 N 7 11 30.28 1025 10 16 0.00 0.00
11:53 am 11:53 Sunny 43 6.1 11 -11.7 27 27 NNE 10 17 30.25 1024 10 16 0.00 0.00
12:53 pm 12:53 Sunny 42 5.6 10 -12.2 27 27 SE 8 13 30.23 1024 10 16 0.00 0.00
1:53 pm 13:53 Sunny 44 6.7 11 -11.7 26 26 E 6 9 30.22 1023 10 16 0.00 0.00
2:53 pm 14:53 Sunny 44 6.7 13 -10.6 28 28 E 9 15 30.23 1024 10 16 0.00 0.00
3:53 pm 15:53 Sunny 44 6.7 14 -10 30 30 SE 7 11 30.24 1024 10 16 0.00 0.00
4:53 pm 16:53 Sunny 43 6.1 14 -10 31 31 ESE 7 11 30.25 1025 10 16 0.00 0.00
5:53 pm 17:53 Clear 42 5.6 14 -10 32 32 SSE 8 13 30.28 1025 10 16 0.00 0.00
6:53 pm 18:53 Clear 42 5.6 13 -10.6 30 30 Calm 30.30 1026 10 16 0.00 0.00
7:53 pm 19:53 Clear 39 3.9 15 -9.4 38 38 WNW 7 11 30.32 1027 10 16 0.00 0.00
8:53 pm 20:53 Clear 38 3.3 16 -8.9 41 41 NW 5 7 30.34 1027 10 16 0.00 0.00
9:53 pm 21:53 Clear 36 2.2 16 -8.9 44 44 Calm 30.35 1028 10 16 0.00 0.00
10:53 pm 22:53 Clear 36 2.2 16 -8.9 44 44 NE 5 7 30.37 1028 10 16 0.00 0.00
11:53 pm 23:53 Clear 33 0.6 18 -7.8 54 54 NW 5 7 30.37 1029 10 16 0.00 0.00

Powered by AerisWeather